エレーニン彗星

P/2014 X1 ( Elenin )

English version
Home page
Updated on December 31, 2016

---------------------------------------------------------------------

・ プロフィール

発見日 2014年12月12日
発見光度 18.0等
発見者 Leonid Elenin (ISON-NM Observatory near Mayhill, NM, USA)

・ 写真集

・ 軌道要素

Epoch 2015 Jan. 18.0 TT = JDT 2457040.5
T 2015 Jan. 7.74210 TT                                  MPCW
q   1.8148798            (2000.0)            P               Q
n   0.06295588     Peri.   34.36815     -0.05331372     -0.92132977
a   6.2581386      Node    61.56955     +0.78932261     -0.27510885
e   0.7099969      Incl.   25.97155     +0.61165960     +0.27471181
P  15.7
From 600 observations 2014 Sept. 4-2015 May 13, mean residual 0".4.

・ 星図

・ 光度変化

        m1 = 9.5 + 5 logΔ + 22.0 log r(t - 80)

---------------------------------------------------------------------

軌道要素はM.P.E.C. 2015-K84に掲載されたものです。
星図はステラナビゲータ Ver.8 (アストロアーツ) で作成したものです。
光度グラフはComet for Windowsで作成したものです。

---------------------------------------------------------------------

Copyright(C) Seiichi Yoshida (comet@aerith.net). All rights reserved.